Regional Weather Roundup
Issued by NWS

Home | Current Version | Previous Version | Graphics & Text | Print | Product List | Glossary On
Versions: 1 2 3 4 5 6 7 8 9 10 11 12 13 14 15 16 17 18 19 20 21 22 23 24 25 26 27 28 29 30 31 32 33 34 35 36 37 38 39 40 41 42 43 44 45 46 47 48 49 50
361
ASUS44 KLIX 181511
RWRLA
LOUISIANA WEATHER ROUNDUP
NATIONAL WEATHER SERVICE NEW ORLEANS LA
1000 AM CDT SAT APR 18 2015

NOTE: "FAIR" INDICATES FEW OR NO CLOUDS BELOW 12,000 FEET WITH NO
      SIGNIFICANT WEATHER AND/OR OBSTRUCTIONS TO VISIBILITY.
      SKY/WX - SKY CONDITION AND SIGNIFICANT WEATHER.
      TMP - AIR TEMPERATURE.    DP   - DEWPOINT TEMPERATURE.
      RH  - RELATIVE HUMIDITY.  PRES - PRESSURE.
      HX  - HEAT INDEX.         WCI  - WIND CHILL INDEX.

*  THESE STATIONS ARE NOT NWS OR FAA STATIONS AND ARE NOT UNDER
   NWS QUALITY CONTROL.

LAZ040-048-061>063-065-066-069-181600-
SOUTHEAST LOUISIANA

CITY           SKY/WX    TMP DP  RH WIND       PRES   REMARKS
N.O. AUDUBON     N/A     70  70 100 MISG        N/A
N.O. INTL ARPT LGT RAIN  71  67  87 SE9       29.95F FOG
N.O. LAKEFRONT LGT RAIN  73  68  84 SW6       29.99F
SLIDELL        LGT RAIN  70  70 100 S5        29.98R FOG
BATON ROUGE    LGT RAIN  70  68  93 SE10      29.89F
BOOTHVILLE     LGT RAIN  70  68  93 N7        29.98R FOG
BELLE CHASSE   TSTM      70  68  93 CALM      29.99R
BOGALUSA*      LGT RAIN  71  67  88 S8        29.98R
GALLIANO*      CLOUDY    67  66  97 N3        29.98F
NEW ROADS*     CLOUDY    69  68  95 SE5       29.92R
GONZALES*      LGT RAIN  70  70 100 SE7       29.90F
HAMMOND*       LGT RAIN  70  68  94 SE10      29.96F
HOUMA*         RAIN      66  66 100 E9        29.95S
PORT FOURCHON* FOG       70  68  94 N20       30.01R VSB 1/2

$$

LAZ041-044-053-054-181600-
SOUTHWEST LOUISIANA

CITY           SKY/WX    TMP DP  RH WIND       PRES   REMARKS
LAKE CHARLES   CLOUDY    71  67  87 SE7       29.90R
LAFAYETTE      CLOUDY    71  68  90 E5        29.89R
PATTERSON      CLOUDY    70  66  88 SE13      29.92F
SALT POINT       N/A     70  68  93 SE12G17   29.89F
NEW IBERIA     CLOUDY    72  67  84 SE14      29.89S
CHENAULT AIRPK CLOUDY    70  66  88 SE8       29.90R

$$

LAZ027-028-181600-
CENTRAL LOUISIANA

CITY           SKY/WX    TMP DP  RH WIND       PRES   REMARKS
FORT POLK      CLOUDY    69  66  92 SE13      29.89S
ALEXANDRIA INT CLOUDY    68  65  90 S6        29.89R
ALEXANDRIA     CLOUDY    68  65  90 S6        29.91R

$$

LAZ001-002-181600-
NORTHWEST LOUISIANA

CITY           SKY/WX    TMP DP  RH WIND       PRES   REMARKS
SHREVEPORT     LGT RAIN  69  66  90 CALM      29.89F
BARKSDALE AFB  CLOUDY    67  67 100 SE3       29.89S
DTN SHREVEPORT RAIN      67  64  90 SE3       29.90S FOG

$$

LAZ014-016-181600-
NORTHEAST LOUISIANA

CITY           SKY/WX    TMP DP  RH WIND       PRES   REMARKS
MONROE         CLOUDY    68  66  93 SE3       29.93R
TALLULAH       CLOUDY    68  64  87 SE5       29.93S

$$




USA.gov is the U.S. government's official web portal to all federal, state and local government web resources and services.